Location: Newark
(48.1500°N, 13.1167°E)
Time: 14:53:54
(UTC+00:00)

ISS - Pass Details

Date: 25 September 2021
Orbit: 417 x 423 km, 51.6° (Epoch: 28 October)

Event Time Altitude Azimuth Distance (km) Brightness Sun altitude
Rises 18:07:00 0° 275° (W) 2,363 2.1 -12.1°
Reaches altitude 10° 18:09:09 10° 282° (WNW) 1,501 0.6 -12.5°
Maximum altitude 18:12:24 44° 356° (N) 590 -2.9 -13.0°
Enters shadow 18:14:35 18° 63° (ENE) 1,102 -2.1 -13.4°
